Weather History for KRAL - October, 2014

Change the Weather History Date:

Tuesday, October 14, 2014

  Actual Average Record
Temperature  
Mean Temperature 70 °F 69 °F  
Max Temperature 82 °F 82 °F 102 °F (1954)
Min Temperature 58 °F 56 °F 37 °F (1928)
Degree Days  
Heating Degree Days 0 1  
Month to date heating degree days 0 4  
Since 1 July heating degree days 0 6  
Cooling Degree Days 5 4  
Month to date cooling degree days 159 84  
Year to date cooling degree days 2202 1676  
Growing Degree Days 20 (Base 50)    
Moisture  
Dew Point 58 °F    
Average Humidity 71    
Maximum Humidity 100    
Minimum Humidity 42    
Precipitation  
Precipitation 0.00 in 0.01 in 0.45 in (1907)
Month to date precipitation 0.00 0.07  
Year to date precipitation 2.09 9.66  
Since 1 July precipitation 0.37 0.47  
Snow  
Snow 0.00 in - - ()
Month to date snowfall 0.0  
Year to date snowfall 0.0  
Since 1 July snowfall 0.0  
Snow Depth 0.00 in    
Sea Level Pressure  
Sea Level Pressure 29.94 in    
Wind  
Wind Speed 5 mph (West)    
Max Wind Speed 13 mph    
Max Gust Speed 17 mph    
Visibility 6 miles    
Events Fog    
T = Trace of Precipitation, MM = Missing Value Source: NWS Daily Summary

Daily Weather History Graph

Daily Weather History Graph

Search for Another Location

Airport or City:

Trip Planner

Search our weather history database for the weather conditions in past years. The results will help you decide how hot, cold, wet, or windy it might be!

Date:

Astronomy

Oct. 14, 2014 Rise Set
Actual Time 6:54 AM PDT 6:16 PM PDT
Civil Twilight 6:28 AM PDT 6:41 PM PDT
Nautical Twilight 5:59 AM PDT 7:10 PM PDT
Astronomical Twilight 5:30 AM PDT 7:39 PM PDT
Moon 11:34 PM PDT (10/14) 12:50 PM PDT (10/14)
Length of Visible Light 12h 13m
Length of Day
11h 22m
Waning Gibbous, 60% of the Moon is Illuminated
Oct 14
Waning Gibbous
Oct 15
Last Quarter
Oct 23
New
Oct 30
First Quarter
Nov 6
Full

Hourly Weather History & Observations

Time (PDT) Temp. Heat Index Dew Point Humidity Pressure Visibility Wind Dir Wind Speed Gust Speed Precip Events Conditions
12:53 AM 66.0 °F - 57.0 °F 73% 29.94 in 10.0 mi NE 3.5 mph - N/A   Clear
1:53 AM 63.0 °F - 55.0 °F 75% 29.96 in 10.0 mi WSW 3.5 mph - N/A   Clear
2:53 AM 62.1 °F - 55.9 °F 80% 29.95 in 9.0 mi Calm Calm - N/A   Clear
3:53 AM 62.1 °F - 55.9 °F 80% 29.94 in 10.0 mi ESE 3.5 mph - N/A   Clear
4:53 AM 61.0 °F - 57.0 °F 87% 29.94 in 9.0 mi Calm Calm - N/A   Clear
5:28 AM 60.1 °F - 57.0 °F 90% 29.98 in 1.0 mi WSW 4.6 mph - N/A   Mist
5:30 AM 59.0 °F - 57.0 °F 93% 29.98 in 0.5 mi West 5.8 mph - N/A Fog Fog
5:35 AM 59.0 °F - 57.0 °F 93% 29.98 in 0.2 mi West 3.5 mph - N/A Fog Fog
5:53 AM 60.1 °F - 59.0 °F 96% 29.94 in 0.2 mi West 4.6 mph - N/A Fog Fog
6:53 AM 60.1 °F - 59.0 °F 96% 29.95 in 0.5 mi Calm Calm - N/A Fog Fog
7:42 AM 60.1 °F - 60.1 °F 100% 29.99 in 0.2 mi East 3.5 mph - N/A Fog Fog
7:53 AM 60.1 °F - 60.1 °F 100% 29.96 in 0.2 mi East 3.5 mph - N/A Fog Fog
8:53 AM 60.1 °F - 60.1 °F 100% 29.96 in 0.5 mi Calm Calm - N/A Fog Fog
9:04 AM 60.1 °F - 59.0 °F 96% 30.00 in 1.0 mi West 4.6 mph - N/A   Overcast
9:25 AM 61.0 °F - 60.1 °F 97% 30.00 in 0.2 mi WSW 6.9 mph - N/A Fog Fog
9:41 AM 62.1 °F - 60.1 °F 93% 30.00 in 2.0 mi West 4.6 mph - N/A   Overcast
9:53 AM 63.0 °F - 60.1 °F 90% 29.97 in 2.5 mi West 10.4 mph - N/A   Mostly Cloudy
10:27 AM 68.0 °F - 60.1 °F 76% 30.01 in 3.0 mi West 9.2 mph 17.3 mph N/A   Haze
10:53 AM 69.1 °F - 59.0 °F 70% 29.96 in 6.0 mi West 9.2 mph - N/A   Haze
11:50 AM 73.4 °F - 57.2 °F 57% - 6.0 mi North - - N/A   Haze
11:53 AM 73.0 °F - 57.9 °F 59% 29.96 in 6.0 mi West 6.9 mph - N/A   Haze
12:53 PM 77.0 °F - 57.9 °F 52% 29.93 in 7.0 mi West 4.6 mph - N/A   Clear
1:53 PM 78.1 °F - 54.0 °F 43% 29.90 in 8.0 mi West 5.8 mph - N/A   Clear
2:53 PM 80.1 °F 80.4 °F 57.0 °F 45% 29.88 in 10.0 mi Variable 4.6 mph - N/A   Clear
3:53 PM 80.1 °F 80.2 °F 55.9 °F 43% 29.87 in 10.0 mi West 8.1 mph - N/A   Mostly Cloudy
4:53 PM 77.0 °F - 57.0 °F 50% 29.87 in 10.0 mi West 11.5 mph - N/A   Mostly Cloudy
5:53 PM 73.0 °F - 57.0 °F 57% 29.86 in 10.0 mi West 9.2 mph - N/A   Mostly Cloudy
6:53 PM 70.0 °F - 57.9 °F 65% 29.89 in 10.0 mi West 6.9 mph - N/A   Mostly Cloudy
7:53 PM 68.0 °F - 57.9 °F 70% 29.91 in 10.0 mi West 5.8 mph - N/A   Clear
8:53 PM 66.0 °F - 57.9 °F 75% 29.92 in 10.0 mi West 3.5 mph - N/A   Clear
9:53 PM 66.0 °F - 59.0 °F 78% 29.92 in 10.0 mi Variable 4.6 mph - N/A   Clear
10:53 PM 64.9 °F - 57.9 °F 78% 29.91 in 10.0 mi West 4.6 mph - N/A   Clear
11:53 PM 64.0 °F - 57.9 °F 80% 29.91 in 10.0 mi West 4.6 mph - N/A   Clear